Weather History for Edwards AFB North Base, CA

Change the Weather History Date:

Monday, January 28, 2013

  Actual Average (KEDW) Record (KEDW)
Temperature  
Mean Temperature 42 °F -  
Max Temperature 50 °F 58 °F 66 °F (2003)
Min Temperature 33 °F 30 °F 23 °F (1999)
Degree Days  
Heating Degree Days 24    
Moisture  
Dew Point 22 °F    
Average Humidity 48    
Maximum Humidity 66    
Minimum Humidity 27    
Precipitation  
Precipitation 0.00 in - - ()
Sea Level Pressure  
Sea Level Pressure 30.09 in    
Wind  
Wind Speed 10 mph (WNW)    
Max Wind Speed 16 mph    
Max Gust Speed 22 mph    
Visibility 10 miles    
Events      
Averages and records for this station are not official NWS values.
T = Trace of Precipitation, MM = Missing Value Source: NWS Daily Summary

Daily Weather History Graph

Daily Weather History Graph

Search for Another Location

Airport:

Trip Planner

Search our weather history database for the weather conditions in past years. The results will help you decide how hot, cold, wet, or windy it might be!

Date:

Astronomy

Jan. 28, 2013 Rise Set
Actual Time 6:52 AM PST 5:16 PM PST
Civil Twilight 6:26 AM PST 5:43 PM PST
Nautical Twilight 5:55 AM PST 6:13 PM PST
Astronomical Twilight 5:25 AM PST 6:43 PM PST
Moon 7:09 PM PST (1/28) 7:26 AM PST (1/28)
Length of Visible Light 11h 17m
Length of Day
10h 23m
Full, 97% of the Moon is Illuminated
Jan 28
Full
Feb 3
Last Quarter
Feb 9
New
Feb 17
First Quarter
Feb 25
Full

Hourly Weather History & Observations

Time (PST) Temp. Windchill Dew Point Humidity Pressure Visibility Wind Dir Wind Speed Gust Speed Precip Events Conditions
12:55 AM 42.1 °F 34.5 °F 21.9 °F 45% 30.00 in 10.0 mi NW 15.0 mph - 0.00 in   Overcast
1:55 AM 41.0 °F 33.9 °F 21.9 °F 47% 30.01 in 10.0 mi NW 12.7 mph 19.6 mph N/A   Overcast
2:55 AM 39.9 °F 35.8 °F 21.9 °F 49% 30.03 in 10.0 mi WNW 5.8 mph - N/A   Overcast
3:55 AM 37.9 °F 32.1 °F 23.0 °F 55% 30.03 in 10.0 mi West 8.1 mph - N/A   Partly Cloudy
4:55 AM 37.9 °F 32.1 °F 21.9 °F 53% 30.02 in 10.0 mi West 8.1 mph - N/A   Clear
5:21 AM - - - N/A% - - North - - N/A   Unknown
5:55 AM 37.0 °F 31.6 °F 24.1 °F 59% 30.04 in 10.0 mi West 6.9 mph - N/A   Clear
6:55 AM 37.0 °F 28.9 °F 24.1 °F 59% 30.06 in 10.0 mi West 12.7 mph - N/A   Clear
7:55 AM 39.0 °F 35.7 °F 26.1 °F 60% 30.07 in 10.0 mi WSW 4.6 mph - N/A   Clear
8:50 AM - - - N/A% - - North - - N/A   Unknown
8:55 AM 44.1 °F 37.4 °F 24.1 °F 45% 30.08 in 10.0 mi NNW 13.8 mph - N/A   Clear
9:45 AM - - - N/A% - - North - - N/A   Unknown
9:55 AM 46.0 °F 39.3 °F 21.9 °F 39% 30.09 in 10.0 mi WNW 16.1 mph - N/A   Clear
10:55 AM 48.0 °F - 19.9 °F 33% 30.08 in 10.0 mi NW 11.5 mph 21.9 mph N/A   Clear
11:55 AM 50.0 °F - 19.0 °F 29% 30.07 in 10.0 mi WNW 15.0 mph 19.6 mph N/A   Clear
12:55 PM 50.0 °F - 19.0 °F 29% 30.07 in 10.0 mi West 9.2 mph 19.6 mph N/A   Clear
1:55 PM 48.9 °F - 18.0 °F 29% 30.07 in 10.0 mi WNW 15.0 mph - N/A   Clear
2:55 PM 50.0 °F - 17.1 °F 27% 30.07 in 10.0 mi NNW 6.9 mph - N/A   Clear
3:55 PM 48.0 °F - 19.0 °F 32% 30.09 in 10.0 mi West 16.1 mph - N/A   Clear
4:55 PM 45.0 °F 37.9 °F 21.0 °F 39% 30.10 in 10.0 mi West 16.1 mph - N/A   Clear
5:55 PM 41.0 °F 35.2 °F 21.9 °F 47% 30.13 in 10.0 mi WNW 9.2 mph - N/A   Clear
6:55 PM 39.0 °F 34.8 °F 21.9 °F 50% 30.14 in 10.0 mi WNW 5.8 mph - N/A   Clear
7:49 PM - - - N/A% - - North - - N/A   Unknown
7:55 PM 37.0 °F - 23.0 °F 57% 30.17 in 10.0 mi Calm Calm - N/A   Clear
8:55 PM 34.0 °F 28.8 °F 23.0 °F 64% 30.17 in 10.0 mi South 5.8 mph - N/A   Clear
9:55 PM 33.1 °F 26.9 °F 23.0 °F 66% 30.16 in 10.0 mi South 6.9 mph - N/A   Clear
10:55 PM 33.1 °F 28.7 °F 23.0 °F 66% 30.17 in 10.0 mi WNW 4.6 mph - N/A   Clear
11:55 PM 34.0 °F - 23.0 °F 64% 30.18 in 10.0 mi Calm Calm - N/A   Clear